Regional Weather Roundup
Issued by NWS

Home | Current Version | Previous Version | Text Only | Print | Product List | Glossary Off
Versions: 1 2 3 4 5 6 7 8 9 10 11 12 13 14 15 16 17 18 19 20 21 22 23 24 25 26 27 28 29 30 31 32 33 34 35 36 37 38 39 40 41 42 43 44 45 46 47 48 49 50

000
ASUS45 KABQ 232301
RWRNM
NEW MEXICO REGIONAL WEATHER ROUNDUP
NATIONAL WEATHER SERVICE ALBUQUERQUE NM
500 PM MDT WED AUG 23 2017

NOTE: "FAIR" MEANS FEW OR NO CLOUDS BELOW 12,000 FEET AGL WITH NO
       SIGNIFICANT WEATHER OR OBSTRUCTIONS TO VISION.

      THIS PRODUCT IS RELEASED AS TWO VERSIONS.  ONE VERSION NEAR
      THE TOP OF THE HOUR CONTAINING PRELIMINARY DATA FROM ALBUQUERQUE
      AND OTHER STATIONS.  A FINAL VERSION WITH ADDITIONAL DATA IS
      ISSUED ABOUT 10 MINUTES AFTER THE HOUR.

NMZ501-503-504-510>518-240000-
NORTHWEST PLATEAU/NORTHCENTRAL MOUNTAINS

CITY           SKY/WX    TMP DP  RH WIND       PRES   REMARKS
FARMINGTON     FAIR      87  40  19 W10       30.11F
LOS ALAMOS     FAIR      72  49  43 SW5       30.28F
SANTA FE       FAIR      78  45  30 SW5       30.20F
TAOS           FAIR      75  48  38 CALM      30.27F
ANGEL FIRE     PTSUNNY   66  49  54 W10       30.35F

$$
NMZ402-403-502-505>509-240000-
WESTCENTRAL MOUNTAINS/SOUTHWEST MOUNTAINS

CITY           SKY/WX    TMP DP  RH WIND       PRES   REMARKS
GALLUP         FAIR      80  43  26 NE12      30.21F
GRANTS         FAIR      75  49  38 SE7       30.23F
SILVER CITY    TSTM      65  58  78 N10       30.15F

$$
NMZ407-409-411-412-240000-
SOUTHERN DESERTS

CITY           SKY/WX    TMP DP  RH WIND       PRES   REMARKS
DEMING         FAIR      92  57  30 S8        30.01F
LAS CRUCES     FAIR      87  57  36 E5        30.04F
HOLLOMAN AFB   FAIR      92  57  30 SW5       30.01F
ALAMOGORDO     FAIR      90  55  31 SW8       30.01F
T OR C         FAIR      88  54  31 W12G23    30.05F

$$
NMZ519>523-240000-
CENTRAL VALLEYS/CENTRAL HIGHLANDS

CITY           SKY/WX    TMP DP  RH WIND       PRES   REMARKS
ALBUQUERQUE    PTSUNNY   85  53  33 W5        30.13F
DOUBLE EAGLE   PTSUNNY   84  46  26 VRB6      30.18F
CLINES CORNERS FAIR      76  49  38 NW7       30.27F
BELEN          FAIR      83  53  35 CALM      30.12F
SOCORRO        FAIR      87  51  28 NE5       30.07F

$$
NMZ524>526-539-540-240000-
SOUTHCENTRAL MOUNTAINS

CITY           SKY/WX    TMP DP  RH WIND       PRES   REMARKS
RUIDOSO        PTSUNNY   72  59  64 SE9       30.28F

$$
NMZ527>531-240000-
NORTHEAST HIGHLANDS/NORTHEAST PLAINS

CITY           SKY/WX    TMP DP  RH WIND       PRES   REMARKS
LAS VEGAS      FAIR      73  58  59 S13       30.25F
RATON          FAIR      75  58  55 S13       30.19F
CLAYTON        FAIR      73  61  65 S10       30.16S

$$
NMZ532>537-240000-
EASTCENTRAL PLAINS

CITY           SKY/WX    TMP DP  RH WIND       PRES   REMARKS
SANTA ROSA     FAIR      82  56  39 SE10      30.09F
TUCUMCARI      FAIR      85  65  51 E13       30.06F
CANNON AFB     FAIR      78  66  65 SE9       30.12F
CLOVIS AIRPORT FAIR      77  65  66 E10       30.13F

$$
NMZ028-029-538-240000-
SOUTHEAST PLAINS

CITY           SKY/WX    TMP DP  RH WIND       PRES   REMARKS
ROSWELL        FAIR      86  61  42 CALM      30.04F
ARTESIA        FAIR      86  61  42 VRB7      30.03F
CARLSBAD       FAIR      85  67  54 VRB3      30.01F
HOBBS          MOSUNNY   82  61  47 E9        30.07F


$$




USA.gov is the U.S. government's official web portal to all federal, state and local government web resources and services.